TimeCDT,TemperatureF,Dew PointF,Humidity,Sea Level PressureIn,VisibilityMPH,Wind Direction,Wind SpeedMPH,Gust SpeedMPH,PrecipitationIn,Events,Conditions,WindDirDegrees,DateUTC
12:53 AM,48.9,45.0,86,29.87,10.0,SSW,6.9,-,N/A,,Clear,210,2012-10-19 05:53:00
1:53 AM,48.0,44.1,86,29.86,10.0,SSW,6.9,-,N/A,,Clear,210,2012-10-19 06:53:00
2:53 AM,46.9,44.1,90,29.85,10.0,SSW,5.8,-,N/A,,Clear,200,2012-10-19 07:53:00
3:53 AM,48.0,43.0,83,29.83,10.0,SSW,4.6,-,N/A,,Clear,210,2012-10-19 08:53:00
4:53 AM,55.0,39.9,57,29.83,10.0,SW,6.9,-,N/A,,Mostly Cloudy,230,2012-10-19 09:53:00
5:53 AM,54.0,39.9,59,29.83,10.0,SW,9.2,-,N/A,,Overcast,220,2012-10-19 10:53:00
6:53 AM,50.0,42.1,74,29.83,10.0,SSW,6.9,-,N/A,,Overcast,210,2012-10-19 11:53:00
7:53 AM,53.1,42.1,66,29.83,10.0,SW,9.2,-,N/A,,Overcast,230,2012-10-19 12:53:00
8:53 AM,57.0,39.9,53,29.85,10.0,WSW,9.2,-,N/A,,Overcast,240,2012-10-19 13:53:00
9:39 AM,60.8,39.2,45,29.85,10.0,WSW,10.4,19.6,N/A,,Overcast,250,2012-10-19 14:39:00
9:53 AM,61.0,39.9,46,29.86,10.0,West,10.4,19.6,N/A,,Mostly Cloudy,260,2012-10-19 14:53:00
10:09 AM,62.6,39.2,42,29.86,10.0,WSW,8.1,20.7,N/A,,Scattered Clouds,250,2012-10-19 15:09:00
10:53 AM,64.9,39.0,39,29.86,10.0,West,12.7,20.7,N/A,,Clear,260,2012-10-19 15:53:00
11:53 AM,66.9,37.9,34,29.84,10.0,WSW,12.7,19.6,N/A,,Clear,240,2012-10-19 16:53:00
12:53 PM,69.1,37.9,32,29.83,10.0,West,10.4,21.9,N/A,,Clear,260,2012-10-19 17:53:00
1:53 PM,70.0,37.0,30,29.81,10.0,WSW,15.0,23.0,N/A,,Clear,250,2012-10-19 18:53:00
2:53 PM,71.1,37.0,29,29.81,10.0,West,10.4,20.7,N/A,,Clear,260,2012-10-19 19:53:00
3:53 PM,71.1,37.9,30,29.80,10.0,Variable,6.9,17.3,N/A,,Clear,0,2012-10-19 20:53:00
4:53 PM,69.1,39.0,33,29.81,10.0,West,8.1,17.3,N/A,,Clear,280,2012-10-19 21:53:00
5:53 PM,66.0,41.0,40,29.83,10.0,WNW,4.6,-,N/A,,Clear,300,2012-10-19 22:53:00
6:53 PM,57.9,46.0,65,29.84,10.0,Calm,Calm,-,N/A,,Clear,0,2012-10-19 23:53:00
7:53 PM,54.0,48.0,80,29.86,10.0,South,3.5,-,N/A,,Clear,170,2012-10-20 00:53:00
8:53 PM,51.1,46.9,86,29.86,10.0,Calm,Calm,-,N/A,,Clear,0,2012-10-20 01:53:00
9:53 PM,48.9,46.9,93,29.88,10.0,Calm,Calm,-,N/A,,Clear,0,2012-10-20 02:53:00
10:53 PM,48.9,46.9,93,29.89,10.0,Calm,Calm,-,N/A,,Clear,0,2012-10-20 03:53:00
11:53 PM,48.0,46.9,96,29.90,10.0,SSE,3.5,-,N/A,,Clear,160,2012-10-20 04:53:00